Regional Weather Roundup
Issued by NWS

Home | Current Version | Previous Version | Graphics & Text | Print | Product List | Glossary Off
Versions: 1 2 3 4 5 6 7 8 9 10 11 12 13 14 15 16 17 18 19 20 21 22 23 24 25 26 27 28 29 30 31 32 33 34 35 36 37 38 39 40 41 42 43 44 45 46 47 48 49 50

000
ASUS45 KABQ 010010
RWRNM
WEATHER ROUNDUP FOR NEW MEXICO
NATIONAL WEATHER SERVICE ALBUQUERQUE NM
600 PM MDT THU JUL 31 2014

NOTE: "FAIR" MEANS FEW OR NO CLOUDS BELOW 12,000 FEET AGL WITH NO
       SIGNIFICANT WEATHER OR OBSTRUCTIONS TO VISION.

      THIS PRODUCT IS RELEASED AS TWO VERSIONS.  ONE VERSION NEAR
      THE TOP OF THE HOUR CONTAINING PRELIMINARY DATA FROM ALBUQUERQUE
      AND OTHER STATIONS.  A FINAL VERSION WITH ADDITIONAL DATA IS
      ISSUED ABOUT 10 MINUTES AFTER THE HOUR.

NMZ501-503-504-510>518-010100-
NORTHWEST PLATEAU/NORTHCENTRAL MOUNTAINS

CITY           SKY/WX    TMP DP  RH WIND       PRES   REMARKS
FARMINGTON     CLOUDY    86  45  23 N15       30.11R
6HR MIN TEMP:  81; 6HR MAX TEMP:  92;

LOS ALAMOS     LGT RAIN  63  50  61 NE16G23   30.37R
SANTA FE       PTSUNNY   76  58  53 S7        30.25R
6HR MIN TEMP:  68; 6HR MAX TEMP:  78;

TAOS           CLOUDY    57  52  82 NE3       30.37R
ANGEL FIRE     RAIN      56  53  91 N5        30.46R

$$
NMZ402-403-502-505>509-010100-
WESTCENTRAL MOUNTAINS/SOUTHWEST MOUNTAINS

CITY           SKY/WX    TMP DP  RH WIND       PRES   REMARKS
GALLUP         PTSUNNY   71  49  45 NW15G30   30.26R
SILVER CITY    PTSUNNY   84  52  32 W14G22    30.14F

$$
NMZ407-409-411-412-010100-
SOUTHERN DESERTS

CITY           SKY/WX    TMP DP  RH WIND       PRES   REMARKS
LORDSBURG      FAIR      91  50  24 N8        30.05F
DEMING         MOSUNNY   91  57  31 E9        30.05F
6HR MIN TEMP:  80; 6HR MAX TEMP:  92;

LAS CRUCES     SUNNY     87  50  27 SE5       30.10F
HOLLOMAN AFB   MOSUNNY   86  55  35 S8        30.05F
ALAMOGORDO     MOSUNNY   86  55  35 SW7G16    30.08F
T OR C         CLOUDY    85  58  39 SE12      30.09F
6HR MIN TEMP:  79; 6HR MAX TEMP:  89;


$$
NMZ519>523-010100-
CENTRAL VALLEYS/CENTRAL HIGHLANDS

CITY           SKY/WX    TMP DP  RH WIND       PRES   REMARKS
ALBUQUERQUE    CLOUDY    80  58  46 W10       30.18S
6HR MIN TEMP:  74; 6HR MAX TEMP:  82;

DOUBLE EAGLE   PTSUNNY   75  57  53 W23G35    30.23R THUNDER
MORIARTY ARPT  MOCLDY    75  57  53 S8        30.25S
6HR MIN TEMP:  68; 6HR MAX TEMP:  77;

CLINES CORNERS CLOUDY    72  56  57 SE16      30.29F
6HR MIN TEMP:  63; 6HR MAX TEMP:  74;

BELEN          MOCLDY    76  54  46 NW22G33   30.19R
6HR MIN TEMP:  74; 6HR MAX TEMP:  82;

SOCORRO        FAIR      85  54  33 SE10      30.11F
6HR MIN TEMP:  78; 6HR MAX TEMP:  87;


$$
NMZ524>526-539-540-010100-
SOUTHCENTRAL MOUNTAINS

CITY           SKY/WX    TMP DP  RH WIND       PRES   REMARKS
RUIDOSO        CLOUDY    66  59  77 SE10      30.32F

$$
NMZ527>531-010100-
NORTHEAST HIGHLANDS/NORTHEAST PLAINS

CITY           SKY/WX    TMP DP  RH WIND       PRES   REMARKS
LAS VEGAS      LGT RAIN  59  56  89 NE16      30.35R
6HR MIN TEMP:  57; 6HR MAX TEMP:  68; 6HR PCP:  0.10;

RATON          LGT RAIN  61  57  87 SW8       30.31F
6HR MIN TEMP:  60; 6HR MAX TEMP:  63; 6HR PCP: TRACE;

CLAYTON        CLOUDY    72  50  45 E3        30.24F
6HR MIN TEMP:  67; 6HR MAX TEMP:  75;


$$
NMZ532>537-010100-
EASTCENTRAL PLAINS

CITY           SKY/WX    TMP DP  RH WIND       PRES   REMARKS
TUCUMCARI      MOSUNNY   80  48  32 E7        30.16F
6HR MIN TEMP:  75; 6HR MAX TEMP:  83;

CANNON AFB     SUNNY     79  52  38 E8G17     30.17F
6HR MIN TEMP:  73; 6HR MAX TEMP:  80;

CLOVIS AIRPORT NOT AVBL

$$
NMZ028-029-538-010100-
SOUTHEAST PLAINS

CITY           SKY/WX    TMP DP  RH WIND       PRES   REMARKS
ROSWELL        PTSUNNY   80  62  54 S9        30.11F
6HR MIN TEMP:  75; 6HR MAX TEMP:  84;

ARTESIA        PTSUNNY   77  63  61 SE8       30.12F
CARLSBAD       MOSUNNY   79  59  50 CALM      30.10F
6HR MIN TEMP:  67; 6HR MAX TEMP:  80; 6HR PCP:  0.02;

HOBBS          MOSUNNY   82  54  36 E12       30.13F


$$


USA.gov is the U.S. government's official web portal to all federal, state and local government web resources and services.